Stündliche Wetter Kyslyn

Heute, 18 Mai, Dienstag

Zeit Temperatur Niederschläge Wind Luftdruck Luftfeuchtigkeit
00:00 +13°C° 0 mm 2 m/S 734 mmHg 90%
01:00 +13°C° 0 mm 2 m/S 734 mmHg 90%
02:00 +13°C° 0 mm 2 m/S 734 mmHg 90%
03:00 +13°C° 0 mm 2 m/S 733 mmHg 92%
04:00 +13°C° 0 mm 2 m/S 733 mmHg 93%
05:00 +13°C° 0 mm 2 m/S 733 mmHg 94%
06:00 +13°C° 0 mm 3 m/S 733 mmHg 90%
07:00 +16°C° 0 mm 3 m/S 733 mmHg 86%
08:00 +17°C° 0 mm 3 m/S 733 mmHg 81%
09:00 +18°C° 0.8 mm 4 m/S 733 mmHg 77%
10:00 +19°C° 0.8 mm 4 m/S 733 mmHg 72%
11:00 +20°C° 0.8 mm 4 m/S 732 mmHg 68%
12:00 +20°C° 0.7 mm 4 m/S 732 mmHg 68%
13:00 +20°C° 0.7 mm 5 m/S 732 mmHg 69%
14:00 +20°C° 0.7 mm 5 m/S 731 mmHg 69%
15:00 +19°C° 0.7 mm 5 m/S 731 mmHg 73%
16:00 +18°C° 0.7 mm 4 m/S 731 mmHg 77%
17:00 +17°C° 0.7 mm 4 m/S 731 mmHg 81%
18:00 +16°C° 0.2 mm 3 m/S 731 mmHg 85%
19:00 +14°C° 0.2 mm 3 m/S 731 mmHg 89%
20:00 +13°C° 0.2 mm 2 m/S 730 mmHg 93%
21:00 +13°C° 0 mm 2 m/S 730 mmHg 93%
22:00 +12°C° 0 mm 2 m/S 730 mmHg 93%
23:00 +12°C° 0 mm 2 m/S 730 mmHg 94%

Morgen, 19 Mai, Mittwoch

Zeit Temperatur Niederschläge Wind Luftdruck Luftfeuchtigkeit
00:00 +12°C° 0 mm 2 m/S 730 mmHg 95%
01:00 +12°C° 0 mm 2 m/S 730 mmHg 95%
02:00 +10°C° 0 mm 2 m/S 730 mmHg 96%
03:00 +10°C° 0 mm 2 m/S 731 mmHg 96%
04:00 +12°C° 0 mm 2 m/S 731 mmHg 96%
05:00 +12°C° 0 mm 2 m/S 731 mmHg 96%
06:00 +11°C° 0 mm 3 m/S 731 mmHg 92%
07:00 +12°C° 0 mm 3 m/S 732 mmHg 88%
08:00 +12°C° 0 mm 3 m/S 732 mmHg 84%
09:00 +14°C° 0 mm 2 m/S 732 mmHg 82%
10:00 +14°C° 0 mm 2 m/S 733 mmHg 80%
11:00 +15°C° 0 mm 2 m/S 733 mmHg 77%
12:00 +14°C° 0.1 mm 3 m/S 734 mmHg 80%
13:00 +13°C° 0.1 mm 4 m/S 734 mmHg 82%
14:00 +13°C° 0.1 mm 5 m/S 735 mmHg 85%
15:00 +13°C° 0.1 mm 6 m/S 735 mmHg 86%
16:00 +11°C° 0.1 mm 6 m/S 735 mmHg 88%
17:00 +11°C° 0.1 mm 6 m/S 736 mmHg 89%
18:00 +11°C° 0 mm 6 m/S 736 mmHg 89%
19:00 +10°C° 0 mm 6 m/S 736 mmHg 88%
20:00 +10°C° 0 mm 5 m/S 737 mmHg 88%
21:00 +10°C° 0 mm 5 m/S 737 mmHg 88%
22:00 +10°C° 0 mm 5 m/S 737 mmHg 88%
23:00 +10°C° 0 mm 5 m/S 737 mmHg 88%

übermorgen, 20 Mai, Donnerstag

Zeit Temperatur Niederschläge Wind Luftdruck Luftfeuchtigkeit
00:00 +9°C° 0 mm 5 m/S 737 mmHg 90%
01:00 +8°C° 0 mm 4 m/S 737 mmHg 92%
02:00 +8°C° 0 mm 4 m/S 738 mmHg 93%
03:00 +8°C° 0 mm 4 m/S 738 mmHg 94%
04:00 +9°C° 0 mm 3 m/S 738 mmHg 95%
05:00 +9°C° 0 mm 3 m/S 738 mmHg 95%
06:00 +10°C° 0 mm 3 m/S 738 mmHg 88%
07:00 +12°C° 0 mm 3 m/S 738 mmHg 80%
08:00 +14°C° 0 mm 3 m/S 738 mmHg 73%
09:00 +16°C° 0 mm 3 m/S 738 mmHg 70%
10:00 +16°C° 0 mm 2 m/S 739 mmHg 67%
11:00 +17°C° 0 mm 2 m/S 739 mmHg 63%
12:00 +17°C° 0.1 mm 2 m/S 739 mmHg 63%
13:00 +18°C° 0.1 mm 2 m/S 739 mmHg 62%
14:00 +18°C° 0.1 mm 2 m/S 738 mmHg 62%
15:00 +18°C° 0.3 mm 2 m/S 739 mmHg 66%
16:00 +17°C° 0.3 mm 3 m/S 739 mmHg 71%
17:00 +16°C° 0.3 mm 3 m/S 739 mmHg 75%
18:00 +14°C° 0.4 mm 3 m/S 739 mmHg 82%
19:00 +13°C° 0.4 mm 3 m/S 739 mmHg 89%
20:00 +12°C° 0.4 mm 3 m/S 739 mmHg 95%
21:00 +12°C° 1 mm 2 m/S 739 mmHg 95%
22:00 +12°C° 1 mm 2 m/S 739 mmHg 95%
23:00 +12°C° 1 mm 2 m/S 739 mmHg 95%

21 Mai, Freitag

Zeit Temperatur Niederschläge Wind Luftdruck Luftfeuchtigkeit
00:00 +12°C° 0.8 mm 2 m/S 739 mmHg 96%
01:00 +12°C° 0.8 mm 2 m/S 739 mmHg 96%
02:00 +12°C° 0.8 mm 2 m/S 739 mmHg 97%
03:00 +11°C° 0.7 mm 3 m/S 739 mmHg 97%
04:00 +11°C° 0.7 mm 3 m/S 739 mmHg 97%
05:00 +11°C° 0.7 mm 3 m/S 739 mmHg 98%
06:00 +11°C° 0.8 mm 3 m/S 740 mmHg 97%
07:00 +11°C° 0.8 mm 3 m/S 740 mmHg 96%
08:00 +12°C° 0.8 mm 4 m/S 740 mmHg 96%
09:00 +12°C° 0.4 mm 4 m/S 740 mmHg 95%
10:00 +12°C° 0.4 mm 4 m/S 741 mmHg 94%
11:00 +12°C° 0.4 mm 4 m/S 741 mmHg 93%
12:00 +12°C° 0 mm 4 m/S 741 mmHg 90%
13:00 +13°C° 0 mm 5 m/S 741 mmHg 87%
14:00 +13°C° 0 mm 5 m/S 741 mmHg 84%
15:00 +13°C° 0 mm 5 m/S 741 mmHg 84%
16:00 +13°C° 0 mm 5 m/S 742 mmHg 83%
17:00 +13°C° 0 mm 5 m/S 742 mmHg 83%
18:00 +12°C° 0 mm 4 m/S 742 mmHg 86%
19:00 +11°C° 0 mm 4 m/S 742 mmHg 89%
20:00 +10°C° 0 mm 3 m/S 742 mmHg 92%
21:00 +10°C° 0 mm 3 m/S 742 mmHg 93%
22:00 +9°C° 0 mm 3 m/S 742 mmHg 94%
23:00 +9°C° 0 mm 3 m/S 742 mmHg 95%

22 Mai, Samstag

Zeit Temperatur Niederschläge Wind Luftdruck Luftfeuchtigkeit
00:00 +8°C° 0 mm 3 m/S 742 mmHg 95%
01:00 +8°C° 0 mm 3 m/S 742 mmHg 96%
02:00 +8°C° 0 mm 3 m/S 742 mmHg 96%
03:00 +8°C° 0 mm 3 m/S 743 mmHg 96%
04:00 +8°C° 0 mm 3 m/S 743 mmHg 96%
05:00 +8°C° 0 mm 3 m/S 743 mmHg 96%
06:00 +10°C° 0 mm 4 m/S 743 mmHg 91%
07:00 +12°C° 0 mm 5 m/S 743 mmHg 86%
08:00 +13°C° 0 mm 5 m/S 742 mmHg 81%
09:00 +15°C° 0 mm 5 m/S 743 mmHg 76%
10:00 +16°C° 0 mm 5 m/S 743 mmHg 71%
11:00 +18°C° 0 mm 4 m/S 743 mmHg 66%
12:00 +19°C° 0 mm 4 m/S 743 mmHg 64%
13:00 +20°C° 0 mm 3 m/S 743 mmHg 62%
14:00 +20°C° 0 mm 3 m/S 743 mmHg 60%
15:00 +20°C° 0 mm 3 m/S 742 mmHg 63%
16:00 +20°C° 0 mm 3 m/S 742 mmHg 65%
17:00 +20°C° 0 mm 3 m/S 742 mmHg 68%
18:00 +18°C° 0 mm 2 m/S 742 mmHg 73%
19:00 +16°C° 0 mm 2 m/S 742 mmHg 79%
20:00 +15°C° 0 mm 1 m/S 742 mmHg 84%
21:00 +14°C° 0 mm 1 m/S 742 mmHg 85%
22:00 +14°C° 0 mm 1 m/S 742 mmHg 86%
23:00 +13°C° 0 mm 2 m/S 742 mmHg 88%

23 Mai, Sonntag

Zeit Temperatur Niederschläge Wind Luftdruck Luftfeuchtigkeit
00:00 +13°C° 0 mm 1 m/S 742 mmHg 88%
01:00 +13°C° 0 mm 1 m/S 742 mmHg 89%
02:00 +12°C° 0 mm 1 m/S 742 mmHg 90%
03:00 +12°C° 0 mm 1 m/S 742 mmHg 90%
04:00 +12°C° 0 mm 1 m/S 742 mmHg 90%
05:00 +12°C° 0 mm 1 m/S 742 mmHg 90%
06:00 +14°C° 0 mm 1 m/S 742 mmHg 85%
07:00 +16°C° 0 mm 1 m/S 742 mmHg 79%
08:00 +19°C° 0 mm 1 m/S 742 mmHg 74%
09:00 +19°C° 0 mm 2 m/S 742 mmHg 70%
10:00 +20°C° 0 mm 2 m/S 742 mmHg 65%
11:00 +21°C° 0 mm 2 m/S 742 mmHg 61%
12:00 +23°C° 0 mm 2 m/S 742 mmHg 59%
13:00 +24°C° 0 mm 2 m/S 742 mmHg 57%
14:00 +25°C° 0 mm 2 m/S 742 mmHg 55%
15:00 +25°C° 0 mm 2 m/S 742 mmHg 57%
16:00 +25°C° 0 mm 2 m/S 742 mmHg 59%
17:00 +25°C° 0 mm 2 m/S 742 mmHg 61%
18:00 +23°C° 0 mm 1 m/S 742 mmHg 66%
19:00 +21°C° 0 mm 1 m/S 742 mmHg 72%
20:00 +17°C° 0 mm 0 m/S 742 mmHg 77%
21:00 +17°C° 0.3 mm 2 m/S 742 mmHg 82%
22:00 +16°C° 0.3 mm 3 m/S 742 mmHg 87%
23:00 +15°C° 0.3 mm 4 m/S 742 mmHg 92%
Mehr zeigen

Wir brauchen deine Erlaubnis

Meteoprog und unser Service Anbieter werden persönliche Daten aufbewahren, so wie Cookies, Geräte Bezeichnung oder ähnliche Technologien von deinem Gerät und Prozess, so wie Persönliche Daten Inhalte und Werbungen, genauso wie social Media und den Verkehr zu analysieren.

  • Aufbewahrung und/oder Zugang zu deiner Geräte Informationen.

    Cookies, Geräte Bezeichnung oder andere Informationen, können aufbewahrt oder Zugang zu deinem Gerät erhalten, für den Grund, der oben angegeben wird.

  • Personalisierte Werbung und Inhalte, Messungen, Einblick in das Publikum und Produkt Entwicklung.

    Werbungen und Inhalte können personalisiert werden, basierend auf ein Profil. Mehr Daten können besser personalisierte Werbungen und Inhalte hinzufügen. Werbung und Inhalte können gezeigt und gemessen werden. Einblicke über das Publikum, welche die Werbung gesehen haben und den Inhalt, können abgeleitet werden. So wie Daten können genutzt werden, um es zu verbessern oder die Benutzer Erfahrung zu verbessern das System und die Software.

Wenn du “Ich stimme zu” klickst, erlaubst du uns, die Cookies zu benutzen die Geräte Bezeichnung, den Web oder ähnliche Technologien zu benutzen. Deine Settings, können in deinem Gerät bei deinem Browser geändert werden.

Für den bestimmten Zweck, berechtigten Interessen beruhen darauf, mehr als auf den Inhalt. Du kannst mehr darüber in unseren Privaten und Cookie Politik lesen.